CW0146 Weather Reports


Display with metric or nautical units.
time (UTC)temp
F
wind
direction
speed
MPH
gust
MPH
rain 1hr
in
rain 24hr
in
rain mn
in
humidity
%
barometer
mb
20260503032454 59 97 1.0 2.0 0.00 0.00 0.00 80 1022.0
20260503031954 59 91 1.0 2.0 0.00 0.00 0.00 80 1022.0
20260503031454 59 101 1.0 2.0 0.00 0.00 0.00 81 1022.0
20260503030954 60 111 1.0 2.0 0.00 0.00 0.00 81 1022.0
20260503030455 60 115 1.0 2.0 0.00 0.00 0.00 80 1022.0
20260503025954 60 106 1.0 2.0 0.00 0.00 0.00 78 1022.0
20260503025456 60 121 0.0 2.0 0.00 0.00 0.00 77 1022.0
20260503024954 61 116 1.0 2.0 0.00 0.00 0.00 76 1022.0
20260503024454 61 124 0.0 2.0 0.00 0.00 0.00 75 1021.0
20260503023953 61 103 1.0 2.0 0.00 0.00 0.00 74 1021.0
20260503023454 62 97 0.0 1.0 0.00 0.00 0.00 73 1021.0
20260503022954 62 98 1.0 2.0 0.00 0.00 0.00 71 1021.0
20260503022005 62 105 1.0 2.0 0.00 0.00 0.00 71 1021.0
20260503021454 63 85 1.0 2.0 0.00 0.00 0.00 70 1021.0
20260503020955 63 98 1.0 2.0 0.00 0.00 0.00 69 1021.0
20260503020454 64 85 1.0 2.0 0.00 0.00 0.00 68 1021.0
20260503015954 64 78 0.0 1.0 0.00 0.00 0.00 66 1021.0
20260503015454 65 252 0.0 1.0 0.00 0.00 0.00 64 1021.0
20260503014955 65 161 0.0 2.0 0.00 0.00 0.00 63 1021.0
20260503014457 66 89 0.0 1.0 0.00 0.00 0.00 62 1021.0
20260503013954 66 110 0.0 1.0 0.00 0.00 0.00 60 1021.0
20260503013454 67 75 0.0 1.0 0.00 0.00 0.00 59 1021.0
20260503012954 67 61 0.0 1.0 0.00 0.00 0.00 59 1021.0
20260503012455 68 18 0.0 1.0 0.00 0.00 0.00 59 1021.0
20260503011954 69 121 0.0 0.0 0.00 0.00 0.00 57 1021.0
20260503011454 69 48 0.0 1.0 0.00 0.00 0.00 57 1021.0
20260503010954 70 111 0.0 1.0 0.00 0.00 0.00 56 1021.0
20260503010454 70 58 0.0 1.0 0.00 0.00 0.00 54 1020.0
20260503005954 71 81 1.0 2.0 0.00 0.00 0.00 52 1020.0
20260503005454 71 74 0.0 2.0 0.00 0.00 0.00 50 1020.0
20260503004954 72 76 1.0 2.0 0.00 0.00 0.00 49 1020.0
20260503004454 72 76 1.0 2.0 0.00 0.00 0.00 48 1020.0
20260503003954 73 90 1.0 4.0 0.00 0.00 0.00 46 1020.0
20260503003454 73 71 1.0 2.0 0.00 0.00 0.00 47 1020.0
20260503002954 73 113 1.0 3.0 0.00 0.00 0.00 47 1020.0
20260503002454 73 97 2.0 3.0 0.00 0.00 0.00 46 1020.0
20260503001954 73 66 2.0 3.0 0.00 0.00 0.00 45 1020.0
20260503001454 73 71 2.0 3.0 0.00 0.00 0.00 44 1020.0
20260503000954 73 88 1.0 2.0 0.00 0.00 0.00 45 1020.0
20260503000454 74 70 1.0 2.0 0.00 0.00 0.00 46 1020.0
20260502235955 74 51 1.0 2.0 0.00 0.00 0.00 45 1020.0
20260502235454 75 61 1.0 2.0 0.00 0.00 0.00 43 1020.0
20260502234954 75 60 1.0 3.0 0.00 0.00 0.00 43 1020.0
20260502234454 75 66 2.0 2.0 0.00 0.00 0.00 43 1020.0
20260502233954 75 67 1.0 3.0 0.00 0.00 0.00 43 1020.0
20260502233454 75 52 1.0 2.0 0.00 0.00 0.00 44 1020.0
20260502232954 75 54 2.0 4.0 0.00 0.00 0.00 42 1020.0
20260502232454 75 119 1.0 2.0 0.00 0.00 0.00 42 1020.0
20260502231955 75 79 0.0 2.0 0.00 0.00 0.00 42 1020.0
20260502231021 75 58 3.0 4.0 0.00 0.00 0.00 41 1020.0
20260502230454 76 53 2.0 3.0 0.00 0.00 0.00 41 1020.0
20260502225955 76 61 1.0 2.0 0.00 0.00 0.00 40 1020.0
20260502225454 76 44 0.0 2.0 0.00 0.00 0.00 40 1020.0
20260502224954 77 55 2.0 5.0 0.00 0.00 0.00 40 1019.0
20260502224454 77 61 1.0 3.0 0.00 0.00 0.00 41 1020.0
20260502223954 77 48 2.0 4.0 0.00 0.00 0.00 40 1020.0
20260502223455 77 314 2.0 4.0 0.00 0.00 0.00 42 1019.0
20260502222954 77 304 1.0 2.0 0.00 0.00 0.00 40 1019.0
20260502222455 76 79 1.0 2.0 0.00 0.00 0.00 41 1020.0
20260502221955 76 54 2.0 3.0 0.00 0.00 0.00 42 1020.0
20260502221454 77 64 2.0 4.0 0.00 0.00 0.00 42 1020.0
20260502220954 77 56 1.0 2.0 0.00 0.00 0.00 43 1020.0
20260502220454 77 138 1.0 4.0 0.00 0.00 0.00 43 1020.0
20260502215954 77 300 2.0 5.0 0.00 0.00 0.00 43 1020.0
20260502215454 76 277 1.0 3.0 0.00 0.00 0.00 44 1019.0
20260502214955 76 332 2.0 4.0 0.00 0.00 0.00 45 1020.0
20260502214454 75 0 0.0 0.0 0.00 0.00 0.00 44 1020.0
20260502213956 75 56 1.0 2.0 0.00 0.00 0.00 44 1020.0
20260502213454 76 62 1.0 3.0 0.00 0.00 0.00 43 1020.0
20260502212954 75 59 1.0 2.0 0.00 0.00 0.00 46 1020.0
20260502212455 74 18 1.0 3.0 0.00 0.00 0.00 48 1020.0
20260502211954 75 66 2.0 4.0 0.00 0.00 0.00 45 1020.0
20260502211454 76 48 2.0 3.0 0.00 0.00 0.00 43 1021.0
20260502210954 76 63 1.0 4.0 0.00 0.00 0.00 43 1020.0
20260502210454 76 42 1.0 2.0 0.00 0.00 0.00 45 1020.0
20260502205954 75 49 1.0 3.0 0.00 0.00 0.00 45 1020.0
20260502205454 76 67 2.0 3.0 0.00 0.00 0.00 45 1021.0
20260502204954 77 76 1.0 3.0 0.00 0.00 0.00 44 1020.0
20260502204455 76 294 0.0 2.0 0.00 0.00 0.00 46 1020.0
20260502203954 75 232 2.0 4.0 0.00 0.00 0.00 45 1020.0
20260502203454 75 46 1.0 3.0 0.00 0.00 0.00 44 1021.0
20260502202954 75 67 2.0 4.0 0.00 0.00 0.00 45 1021.0
20260502202454 76 51 3.0 4.0 0.00 0.00 0.00 43 1021.0
20260502201954 76 50 2.0 5.0 0.00 0.00 0.00 45 1021.0
20260502201455 75 298 1.0 4.0 0.00 0.00 0.00 46 1021.0
20260502200955 75 58 0.0 2.0 0.00 0.00 0.00 46 1021.0
20260502200454 75 44 1.0 2.0 0.00 0.00 0.00 42 1021.0
20260502195954 75 53 1.0 3.0 0.00 0.00 0.00 43 1021.0
20260502195454 75 313 1.0 2.0 0.00 0.00 0.00 47 1021.0
20260502194953 75 66 1.0 3.0 0.00 0.00 0.00 46 1021.0
20260502194454 75 60 1.0 3.0 0.00 0.00 0.00 47 1021.0
20260502193954 75 42 1.0 4.0 0.00 0.00 0.00 45 1021.0
20260502193456 75 90 0.0 2.0 0.00 0.00 0.00 46 1021.0
20260502192954 75 68 1.0 3.0 0.00 0.00 0.00 45 1021.0
20260502192455 75 311 1.0 3.0 0.00 0.00 0.00 46 1021.0
20260502191954 75 278 1.0 3.0 0.00 0.00 0.00 47 1021.0
20260502191454 75 33 1.0 2.0 0.00 0.00 0.00 46 1021.0
20260502190954 75 297 4.0 9.0 0.00 0.00 0.00 48 1021.0
20260502190454 74 308 1.0 3.0 0.00 0.00 0.00 51 1021.0
20260502185954 74 336 1.0 5.0 0.00 0.00 0.00 49 1021.0
20260502185454 74 39 2.0 3.0 0.00 0.00 0.00 50 1021.0
20260502184954 74 5 1.0 3.0 0.00 0.00 0.00 50 1021.0
20260502184454 74 317 1.0 4.0 0.00 0.00 0.00 51 1021.0
20260502183954 74 319 2.0 5.0 0.00 0.00 0.00 50 1021.0
20260502183454 74 16 2.0 4.0 0.00 0.00 0.00 52 1021.0
20260502182954 73 0 0.0 3.0 0.00 0.00 0.00 52 1021.0
20260502182454 73 15 1.0 3.0 0.00 0.00 0.00 54 1021.0
20260502181954 73 344 2.0 4.0 0.00 0.00 0.00 53 1021.0
20260502181454 73 309 2.0 4.0 0.00 0.00 0.00 55 1021.0
20260502180527 72 300 3.0 6.0 0.00 0.00 0.00 55 1022.0
20260502170454 70 305 2.0 4.0 0.00 0.00 0.00 58 1022.0
20260502163955 69 326 2.0 5.0 0.00 0.00 0.00 61 1022.0
20260502163454 68 321 3.0 7.0 0.00 0.00 0.00 59 1022.0
20260502162954 69 324 2.0 6.0 0.00 0.00 0.00 58 1022.0
20260502162454 68 39 1.0 3.0 0.00 0.00 0.00 60 1022.0
20260502161954 68 13 1.0 2.0 0.00 0.00 0.00 62 1022.0
20260502161454 68 325 1.0 3.0 0.00 0.00 0.00 60 1022.0
20260502160955 67 340 1.0 2.0 0.00 0.00 0.00 63 1022.0
20260502160454 67 274 1.0 4.0 0.00 0.00 0.00 62 1022.0
20260502151954 63 242 2.0 3.0 0.00 0.00 0.00 67 1022.0
20260502151454 62 216 2.0 2.0 0.00 0.00 0.00 67 1023.0
20260502150953 62 230 3.0 3.0 0.00 0.00 0.00 67 1023.0
20260502150454 62 223 2.0 2.0 0.00 0.00 0.00 72 1023.0
20260502130455 52 211 1.0 1.0 0.00 0.00 0.00 96 1021.0
20260502123454 49 235 1.0 1.0 0.00 0.00 0.00 99 1021.0
20260502122954 49 206 1.0 1.0 0.00 0.00 0.00 98 1021.0
20260502122455 49 245 0.0 1.0 0.00 0.00 0.00 98 1021.0
20260502121954 48 230 0.0 1.0 0.00 0.00 0.00 98 1021.0
20260502121454 48 228 0.0 1.0 0.00 0.00 0.00 98 1021.0
20260502120954 48 212 1.0 1.0 0.00 0.00 0.00 98 1021.0
20260502120454 48 197 1.0 1.0 0.00 0.00 0.00 98 1021.0
20260502115454 48 206 0.0 1.0 0.00 0.00 0.00 98 1021.0
20260502114957 48 0 0.0 0.0 0.00 0.00 0.00 98 1021.0
20260502114454 48 335 1.0 1.0 0.00 0.00 0.00 98 1021.0
20260502113954 48 292 1.0 1.0 0.00 0.00 0.00 98 1021.0
20260502113454 48 0 0.0 0.0 0.00 0.00 0.00 97 1021.0
20260502112955 48 0 0.0 0.0 0.00 0.00 0.00 97 1021.0
20260502112454 49 309 0.0 1.0 0.00 0.00 0.00 97 1021.0
20260502111954 49 174 0.0 0.0 0.00 0.00 0.00 97 1021.0
20260502111454 49 0 0.0 0.0 0.00 0.00 0.00 97 1020.0
20260502110954 49 180 0.0 0.0 0.00 0.00 0.00 97 1020.0
20260502110454 49 118 0.0 0.0 0.00 0.00 0.00 97 1020.0
20260502105954 49 180 1.0 1.0 0.00 0.00 0.00 97 1020.0
20260502105455 49 163 2.0 2.0 0.00 0.00 0.00 97 1020.0
20260502104954 49 160 0.0 0.0 0.00 0.00 0.00 96 1020.0
20260502104454 50 301 1.0 1.0 0.00 0.00 0.00 96 1020.0
20260502103954 50 335 1.0 1.0 0.00 0.00 0.00 96 1020.0
20260502103454 50 127 0.0 1.0 0.00 0.00 0.00 96 1020.0
20260502102954 50 206 0.0 0.0 0.00 0.00 0.00 96 1019.0
20260502102454 50 0 0.0 0.0 0.00 0.00 0.00 96 1019.0
20260502101954 50 222 0.0 1.0 0.00 0.00 0.00 96 1019.0
20260502101455 50 339 0.0 0.0 0.00 0.00 0.00 96 1019.0
20260502100954 50 296 0.0 1.0 0.00 0.00 0.00 96 1019.0
20260502100454 50 215 0.0 1.0 0.00 0.00 0.00 96 1019.0
20260502091454 51 321 0.0 1.0 0.00 0.00 0.00 97 1019.0
20260502090954 50 348 1.0 1.0 0.00 0.00 0.00 97 1019.0
20260502090454 50 221 1.0 1.0 0.00 0.00 0.00 97 1019.0
20260502071454 51 258 1.0 2.0 0.00 0.00 0.00 97 1019.0
20260502070953 51 193 0.0 0.0 0.00 0.00 0.00 97 1019.0
20260502070454 51 328 1.0 1.0 0.00 0.00 0.00 97 1019.0
20260502065954 51 15 0.0 1.0 0.00 0.00 0.00 97 1019.0
20260502065454 51 210 1.0 1.0 0.00 0.00 0.00 97 1019.0
20260502064954 51 306 0.0 0.0 0.00 0.00 0.00 97 1019.0
20260502064454 51 48 0.0 1.0 0.00 0.00 0.00 97 1019.0
20260502063954 51 0 0.0 0.0 0.00 0.00 0.00 97 1019.0
20260502063454 51 204 0.0 1.0 0.00 0.00 0.00 97 1019.0
20260502062954 51 0 0.0 0.0 0.00 0.00 0.00 97 1019.0
20260502062456 51 153 0.0 1.0 0.00 0.00 0.00 97 1019.0
20260502061954 51 194 0.0 0.0 0.00 0.00 0.00 96 1019.0
20260502061454 51 136 0.0 1.0 0.00 0.00 0.00 96 1019.0
20260502060954 51 28 0.0 1.0 0.00 0.00 0.00 96 1019.0
20260502060457 51 155 1.0 1.0 0.00 0.00 0.00 96 1019.0
20260502055955 52 298 0.0 1.0 0.00 0.00 0.00 96 1019.0
20260502055454 52 332 1.0 1.0 0.00 0.00 0.00 96 1019.0
20260502054954 52 208 0.0 0.0 0.00 0.00 0.00 96 1019.0
20260502054454 52 179 0.0 1.0 0.00 0.00 0.00 96 1019.0
20260502053954 52 68 1.0 1.0 0.00 0.00 0.00 96 1019.0
20260502053454 52 208 1.0 1.0 0.00 0.00 0.00 96 1019.0
20260502052954 52 216 1.0 1.0 0.00 0.00 0.00 96 1019.0
20260502052454 52 178 0.0 1.0 0.00 0.00 0.00 96 1019.0
20260502051955 52 182 0.0 1.0 0.00 0.00 0.00 95 1019.0
20260502051454 52 182 1.0 1.0 0.00 0.00 0.00 95 1019.0
20260502050954 52 140 1.0 1.0 0.00 0.00 0.00 95 1019.0
20260502050455 53 175 1.0 1.0 0.00 0.00 0.00 95 1019.0
20260502045953 53 82 0.0 1.0 0.00 0.00 1.33 95 1019.0
20260502045454 53 192 0.0 1.0 0.00 0.00 1.33 95 1019.0
20260502044954 53 188 1.0 1.0 0.00 0.00 1.33 95 1019.0
20260502044454 53 151 0.0 1.0 0.00 0.00 1.33 95 1019.0
20260502043954 53 113 1.0 1.0 0.00 0.00 1.33 95 1019.0
20260502043454 53 142 0.0 1.0 0.00 0.00 1.33 95 1019.0
20260502042954 54 161 1.0 1.0 0.00 0.00 1.33 95 1019.0
20260502042454 54 226 1.0 1.0 0.00 0.00 1.33 95 1019.0
20260502041954 54 269 1.0 1.0 0.00 0.00 1.33 95 1019.0
20260502041454 54 295 1.0 1.0 0.00 0.00 1.33 95 1018.0
20260502040954 54 102 0.0 1.0 0.00 0.00 1.33 95 1018.0
20260502040453 54 208 1.0 1.0 0.00 0.00 1.33 95 1019.0
20260502035954 54 324 1.0 1.0 0.00 0.00 1.33 95 1019.0
20260502035454 54 134 0.0 1.0 0.00 0.00 1.33 95 1019.0
20260502034954 54 174 1.0 1.0 0.00 0.00 1.33 95 1018.0
20260502034454 54 207 1.0 1.0 0.00 0.00 1.33 95 1018.0
20260502033954 54 139 1.0 1.0 0.00 0.00 1.33 95 1018.0
20260502033455 54 60 1.0 1.0 0.00 0.00 1.33 95 1018.0
20260502032955 54 233 1.0 1.0 0.00 0.00 1.33 95 1018.0